Regional Weather Roundup
Issued by NWS

Home | Current Version | Previous Version | Graphics & Text | Print | Product List | Glossary On
Versions: 1 2 3 4 5 6 7 8 9 10 11 12 13 14 15 16 17 18 19 20 21 22 23 24 25 26 27 28 29 30 31 32 33 34 35 36 37 38 39 40 41 42 43 44 45 46 47 48 49 50
000
ASUS43 KMKX 260121
RWRWI

WISCONSIN REGIONAL WEATHER ROUNDUP
NATIONAL WEATHER SERVICE MILWAUKEE/SULLIVAN WI
800 PM CDT SAT APR 25 2015

NOTE: "FAIR" INDICATES FEW OR NO CLOUDS BELOW 12,000 FEET WITH NO
SIGNIFICANT WEATHER AND/OR OBSTRUCTIONS TO VISIBILITY.

WIZ001-002-006>008-014>016-023>028-260200-
NORTHWEST WISCONSIN

CITY           SKY/WX    TMP DP  RH WIND       PRES   REMARKS
SUPERIOR ARPT  CLEAR     37  26  67 NE8G16    30.03R WCI  30
ASHLAND        CLEAR     35  25  66 NE8       30.03R WCI  29
HAYWARD        CLEAR     43  20  39 NE13      29.96R
SIREN          CLEAR     50  24  36 NE8G17    29.94R
CUMBERLAND     CLEAR     50  25  37 NE14      29.91R
RICE LAKE      CLEAR     50  28  41 N13G18    29.91R
CHETEK         CLEAR     54  29  38 N6        29.90R
LADYSMITH      CLEAR     49  25  39 N13       29.92R
EAU CLAIRE     CLEAR     56  20  24 E5        29.87R
MENOMONIE      CLEAR     55  22  27 NE5       29.88R
NEW RICHMOND   CLEAR     55  23  29 NE5       29.89R
OSCEOLA        CLEAR     56  29  36 NE12G17   29.92R
$$

WIZ003>005-009-010-017-018-260200-
NORTH CENTRAL WISCONSIN

CITY           SKY/WX    TMP DP  RH WIND       PRES   REMARKS
MANITOWISH WTR CLEAR     44  22  40 N7        29.94R
ARBOR VITAE    CLEAR     49  19  30 NE9       29.92R
WOODRUFF       CLEAR     49  19  30 NE9       29.92R
RHINELANDER    CLEAR     49  13  23 NE8       29.91R
EAGLE RIVER    CLEAR     45  18  33 N10       29.92R
LAND O LAKES   CLEAR     44  19  37 N8        29.95R
PHILLIPS       CLEAR     47  24  40 N10G17    29.91R
TOMAHAWK       CLEAR     49  16  26 CALM      29.89S
MEDFORD        CLEAR     49  21  33 NE5       29.88R
MERRILL        CLEAR     51  15  24 E5        29.89R
$$

WIZ029-030-035-036-043>047-260200-
CENTRAL WISCONSIN

CITY           SKY/WX    TMP DP  RH WIND       PRES   REMARKS
WAUSAU         CLEAR     49  17  28 SE10      29.88R
MOSINEE        CLEAR     46  18  31 E7        29.90R
MARSHFIELD     CLEAR     52  21  29 E3        29.88R
STEVENS POINT  PTCLDY    45  18  33 SE6       29.90R
WAUPACA        PTCLDY    47   9  20 NE3       29.91R
WAUTOMA        PTCLDY    46   6  19 NE6       29.91R
WISC RAPIDS    PTCLDY    48  14  25 E8        29.91R
CAMP DOUGLAS   CLEAR     47  11  23 E8        29.88R
$$

WIZ011>013-019>022-031-037>040-048>050-260200-
NORTHEAST WISCONSIN

CITY           SKY/WX    TMP DP  RH WIND       PRES   REMARKS
ANTIGO         CLEAR     44  24  46 SE6       29.90R
SHAWANO        CLEAR     45  17  33 E6        29.92R
OCONTO         CLEAR     44  22  43 NE3       29.92R
STURGEON BAY   PTCLDY    43  16  33 NE12      29.93R
GREEN BAY      PTCLDY    44  18  35 NE10      29.91R
MANITOWOC      PTCLDY    42  23  46 N9        29.90R
APPLETON       PTCLDY    45   7  21 NE8       29.90R
CLINTONVILLE   PTCLDY    43  14  31 NE6       29.91R
OSHKOSH        PTCLDY    45  19  35 NE12      29.89R
$$

WIZ032>034-041-042-053>061-260200-
SOUTHWEST WISCONSIN

CITY           SKY/WX    TMP DP  RH WIND       PRES   REMARKS
LA CROSSE      PTCLDY    55  18  23 E7        29.87R
SPARTA         PTCLDY    50  11  20 E5        29.89R
VIROQUA        PTCLDY    47  22  36 NE7       29.87R
BOSCOBEL       CLOUDY    51  28  41 CALM      29.87R
PRAIRIE DU CHI CLOUDY    49  29  44 E5        29.87R
PLATTEVILLE    CLOUDY    47  36  65 NE6       29.85R
$$

WIZ056-057-062-063-064-067-068-260200-
SOUTH CENTRAL WISCONSIN

CITY           SKY/WX    TMP DP  RH WIND       PRES   REMARKS
REEDSBURG      PTCLDY    48  19  31 NE8       29.88R
BARABOO/DELLS  CLOUDY    47  17  30 NE8       29.88R
LONE ROCK      MOCLDY    49  26  41 NE8       29.87R
MINERAL POINT  CLOUDY    46  32  57 E5        29.85S
MADISON        MOCLDY    47  28  47 E6        29.86R
MIDDLETON      CLOUDY    48  29  47 E5        29.87R
WATERTOWN      CLOUDY    45  27  50 CALM      29.87R
MONROE         CLOUDY    45  36  70 NE9       29.84S
JANESVILLE     CLOUDY    46  30  53 E10       29.85R
$$

WIZ051-052-058>065-066-070>072-260200-
SOUTHEAST WISCONSIN

CITY           SKY/WX    TMP DP  RH WIND       PRES   REMARKS
MILWAUKEE      MOCLDY    40  24  53 NE14G23   29.87R WCI  32
WAUKESHA       MOCLDY    43  21  42 NE10      29.87R
MILWAUKEE/TIMM CLOUDY    43  16  33 N12G17    29.88R
RACINE         CLOUDY    39  27  62 N15       29.88R WCI  31
BURLINGTON     CLOUDY    41  24  51 NE7       29.86R
KENOSHA        CLOUDY    40  28  62 N9        29.86R WCI  34
FOND DU LAC    PTCLDY    45  26  47 N12       29.88R
SHEBOYGAN      PTCLDY    42  20  41 N13       29.88R
WEST BEND      CLOUDY    43  14  31 NE10      29.87R
JUNEAU         CLOUDY    46  12  25 N9G17     29.88R
$$

LSZ147-162-260200-
LAKE SUPERIOR

STATION/POSITION TIME  TEMP    WIND        PRES    WAVE
                       AIR SEA DIR/SP/G            HT/PER
                 (UTC) (F)     (DEG/KT/KT) (MB)    (FT/S)
W MID LAKE BUOY  0050   36 35   80/  8/  8 1018.1R   2/ 4
DEVILS ISLAND    0100   36      50/ 10/ 10 1017.8R
PORT WING        0040   37      30/ 13/ 15 1016.6S
SAXON HARBOR     0000   38      40/ 15/ 17 1015.6
$$

LMZ867-665-643>646-260200-
LAKE MICHIGAN

STATION/POSITION TIME  TEMP    WIND        PRES    WAVE
                       AIR SEA DIR/SP/G            HT/PER
                 (UTC) (F)     (DEG/KT/KT) (MB)    (FT/S)
CHAMBERS ISLAND  0000   42     360/  3/  6 1013.9R
NORTHPORT PIER   0000   44      60/ 10/ 13 1013.2R
SISTER BAY       0032   46      40/  4/  9   N/A
KEWAUNEE LAKESHO 0100   42      30/ 13/ 18 1011.9R
SHEBOYGAN LAKESH 0100   41      10/ 20/ 22 1012.5R
PORT WASHINGTON  0040   43      10/  7/ 13 1012.2R
MILWAUKEE LAKESH 0100   40     360/ 17/ 24   N/A
KENOSHA   LAKESH 0100   41     360/ 19/ 21 1010.8R
$$

TC  - TEMPERATURE IN CELSIUS
VSB - VISIBILITY IN STATUTE MILES
WCI - WIND CHILL INDEX
HX  - HEAT INDEX




USA.gov is the U.S. government's official web portal to all federal, state and local government web resources and services.